[[{"header":{"parameterUnit":"m.s-1","parameterCategory":1,"la1":30.2991,"la2":30.254,"lo1":-89.0895,"lo2":-89.0444,"dy":0.0017,"dx":0.0017,"nx":28,"ny":28,"refTime":"2024-05-08T21:00:00:Z","depth":0,"parameterNumber":2,"parameterNumberName":"U-component_of_WINDS"},"data":[0,0,0,0,0,0,0,0,0,0,0,0,0,0,0,0,0,0,0,0,0,0,0,0,0,0,0,0,0,0,0,0,0,0,0,0,0,0,0,0,0,0,0,0,0,0,0,0,0,0,0,0,0,0,0,0,0,0,1.8532,1.8532,0,1.8527,1.8526,1.8526,1.8503,1.8502,1.8501,1.8501,1.8494,1.8494,1.8494,0,0,0,0,0,0,0,0,0,0,0,0,0,1.8517,1.8517,1.8532,1.8532,1.8532,1.8527,1.8526,1.8526,1.8503,1.8502,1.8501,1.8501,1.8494,1.8494,1.8494,0,0,0,0,0,0,0,0,0,0,0,0,0,1.8518,1.8517,1.8532,1.8519,1.8518,1.8527,1.8526,1.8526,1.8503,1.8502,1.8501,1.85,1.8493,1.8494,1.8494,1.8514,0,0,1.8496,1.8496,0,0,0,0,0,0,0,0,1.8518,1.8519,1.8521,1.852,1.8519,1.8514,1.8518,1.8522,1.8503,1.8509,1.8501,1.85,1.8501,1.8501,1.8502,1.8514,1.8513,1.8496,1.8496,1.8496,1.8496,0,0,0,0,0,0,0,1.8518,1.8519,1.853,1.8521,1.852,1.8512,1.8512,1.8519,1.8509,1.8508,1.8506,1.8506,1.85,1.8501,1.8501,1.8513,1.8496,1.8496,1.8497,1.8497,1.8537,1.8538,0,0,0,0,0,0,1.852,1.8519,1.853,1.8529,1.8517,1.8513,1.8513,1.8517,1.8509,1.8507,1.8507,1.8505,1.8501,1.8501,1.8501,1.8521,1.8496,1.8497,1.8497,1.8536,1.8537,1.8538,0,0,0,0,0,0,1.852,1.8522,1.853,1.8524,1.8524,1.8514,1.8519,1.8517,1.8518,1.8508,1.8506,1.851,1.85,1.85,1.851,1.8521,1.8497,1.8497,1.8535,1.8537,1.8538,1.8563,0,0,0,0,0,0,1.852,1.8522,1.853,1.8524,1.8525,1.8541,1.852,1.8517,1.8519,1.8517,1.8511,1.8509,1.85,1.851,1.8511,1.8521,1.8498,1.8534,1.8536,1.8537,1.8561,1.8565,1.8568,0,0,0,0,0,1.8519,1.8538,1.8531,1.8532,1.8535,1.8541,1.8542,1.8531,1.852,1.8528,1.8521,1.8509,1.8519,1.8511,1.8512,1.8522,1.8534,1.8536,1.8537,1.856,1.8564,1.8568,0,0,0,0,0,0,1.8545,1.8537,1.8529,1.8546,1.8545,1.8537,1.8547,1.8537,1.8538,1.8535,1.8521,1.852,1.8531,1.8528,1.8519,1.8539,1.8524,1.8526,1.8541,1.8545,1.8549,1.8549,1.8498,0,0,0,0,0,1.8553,1.856,1.8552,1.8568,1.8567,1.8557,1.8559,1.8551,1.8549,1.8548,1.8542,1.8539,1.8541,1.8543,1.8545,1.8561,1.8558,1.8568,1.8571,1.8574,1.8576,1.8581,1.8585,1.8544,1.8544,1.8544,0,0,1.8569,1.8565,1.8571,1.8573,1.857,1.8576,1.8557,1.8564,1.8567,1.8549,1.8557,1.8553,1.8548,1.8561,1.8566,1.8558,1.8586,1.8577,1.8579,1.8579,1.8583,1.8587,1.859,1.8545,1.8545,1.8545,0,0,1.8601,1.86,1.8612,1.8609,1.8606,1.8599,1.8602,1.8595,1.8591,1.86,1.8585,1.8588,1.8593,1.859,1.8589,1.8616,1.8604,1.8617,1.8635,1.864,1.8643,1.8646,1.8653,1.8657,1.8619,1.8619,1.8619,0,1.8621,1.863,1.8619,1.8626,1.8626,1.861,1.862,1.8618,1.8615,1.8615,1.8607,1.8611,1.8607,1.8616,1.8623,1.8623,1.8624,1.8618,1.8644,1.8646,1.8649,1.8656,1.8659,1.862,1.862,1.862,1.862,0,1.8654,1.866,1.867,1.8667,1.8668,1.8677,1.8666,1.8668,1.8659,1.8652,1.8659,1.8653,1.8653,1.8654,1.8646,1.8662,1.8657,1.8646,1.8631,1.8654,1.866,1.8663,1.8622,1.8622,1.8621,1.8621,0,0,1.8703,1.8692,1.8696,1.8693,1.8687,1.8691,1.8698,1.8697,1.8698,1.8696,1.87,1.8704,1.8693,1.8692,1.8682,1.8687,1.8706,1.8675,1.8675,1.868,1.872,1.8727,1.8731,1.8698,1.8699,1.8699,1.872,0,1.8732,1.8744,1.8733,1.8746,1.875,1.8733,1.8738,1.8734,1.8727,1.8728,1.872,1.8722,1.8709,1.8708,1.8712,1.8703,1.8714,1.8701,1.87,1.87,1.8701,1.8734,1.8742,1.8762,1.8722,1.8723,1.8723,0,1.8767,1.8766,1.878,1.8771,1.8772,1.8777,1.8774,1.8776,1.877,1.8764,1.8762,1.875,1.8754,1.8739,1.8743,1.8735,1.8734,1.8729,1.873,1.8728,1.8712,1.8732,1.8769,1.8771,1.8727,1.8727,1.8727,0,1.8799,1.8801,1.8809,1.8808,1.8797,1.8801,1.8797,1.879,1.8789,1.8786,1.8784,1.8782,1.878,1.8777,1.8764,1.8756,1.8769,1.8754,1.8763,1.8763,1.8766,1.8766,1.8801,1.8767,1.8767,1.8767,1.8767,0,1.8832,1.884,1.8823,1.8828,1.8836,1.8822,1.883,1.8824,1.8817,1.8819,1.8804,1.8806,1.8789,1.8789,1.8778,1.8782,1.8782,1.8776,1.8773,1.8776,1.8777,1.8775,1.8772,1.8768,1.8768,1.8768,1.8768,0,1.8869,1.8858,1.8865,1.8853,1.8851,1.8857,1.8847,1.885,1.8841,1.8843,1.8843,1.8829,1.8827,1.8814,1.881,1.8802,1.8809,1.8804,1.8811,1.8809,1.8818,1.8816,1.8852,1.8855,1.8821,1.8821,1.8821,0,1.889,1.8896,1.8885,1.8885,1.8881,1.8882,1.8881,1.8866,1.8865,1.8857,1.886,1.8857,1.8854,1.8852,1.884,1.8836,1.8829,1.8842,1.8829,1.8831,1.8827,1.8827,1.8826,1.8845,1.8845,1.8846,1.8846,0,1.8927,1.8921,1.892,1.8916,1.8915,1.8912,1.8907,1.8908,1.8892,1.8891,1.8889,1.8886,1.8881,1.8877,1.887,1.8864,1.8852,1.885,1.8852,1.8855,1.8858,1.8855,1.8817,1.8849,1.8849,1.8849,1.8849,1.8848,1.8955,1.8959,1.8951,1.895,1.8945,1.894,1.8941,1.8932,1.8931,1.8925,1.8916,1.8915,1.8906,1.8895,1.889,1.8887,1.888,1.8883,1.8883,1.8884,1.8885,1.8859,1.8886,1.8886,1.8886,1.8886,1.8886,0,1.899,1.8984,1.8983,1.8976,1.8975,1.8964,1.8957,1.8956,1.8955,1.8948,1.8945,1.8941,1.8937,1.8924,1.8918,1.8918,1.8912,1.8917,1.8916,1.8915,1.8893,1.8891,1.8922,1.8922,1.8922,1.8922,1.8922,1.8922,1.9008,1.9013,1.9005,1.9006,1.8999,1.8998,1.8995,1.899,1.8984,1.898,1.8976,1.8968,1.8958,1.8951,1.8946,1.8942,1.894,1.8946,1.8941,1.892,1.8917,1.8913,1.8912,1.8946,1.8946,1.8963,1.8963,1.8963]},{"header":{"parameterUnit":"m.s-1","parameterCategory":1,"la1":30.2991,"la2":30.254,"lo1":-89.0895,"lo2":-89.0444,"dy":0.0017,"dx":0.0017,"nx":28,"ny":28,"refTime":"2024-05-08T21:00:00:Z","depth":0,"parameterNumber":3,"parameterNumberName":"V-component_of_WINDS"},"data":[0,0,0,0,0,0,0,0,0,0,0,0,0,0,0,0,0,0,0,0,0,0,0,0,0,0,0,0,0,0,0,0,0,0,0,0,0,0,0,0,0,0,0,0,0,0,0,0,0,0,0,0,0,0,0,0,0,0,5.3681,5.3682,0,5.3763,5.3763,5.3764,5.375,5.3748,5.3747,5.3745,5.3822,5.3825,5.3828,0,0,0,0,0,0,0,0,0,0,0,0,0,5.3506,5.3509,5.3681,5.3682,5.3683,5.3762,5.3764,5.3765,5.375,5.3748,5.3746,5.3745,5.3821,5.3825,5.3829,0,0,0,0,0,0,0,0,0,0,0,0,0,5.3584,5.351,5.3681,5.3686,5.3687,5.3762,5.3764,5.3765,5.375,5.3748,5.3746,5.3744,5.3819,5.3824,5.3829,5.3903,0,0,5.3845,5.3847,0,0,0,0,0,0,0,0,5.358,5.359,5.3684,5.3686,5.3687,5.3744,5.373,5.3811,5.3751,5.3726,5.3745,5.3743,5.3797,5.3804,5.3824,5.3907,5.391,5.3845,5.3848,5.385,5.3852,0,0,0,0,0,0,0,5.3574,5.3587,5.3713,5.3685,5.3687,5.3681,5.369,5.3745,5.3772,5.3728,5.3727,5.3737,5.3797,5.3819,5.3825,5.3911,5.3845,5.3849,5.3853,5.3855,5.4056,5.4058,0,0,0,0,0,0,5.3568,5.3582,5.3711,5.3716,5.3627,5.3686,5.3696,5.3728,5.3772,5.3777,5.3739,5.3736,5.3811,5.3819,5.3828,5.3916,5.385,5.3855,5.3858,5.4054,5.4057,5.4059,0,0,0,0,0,0,5.3565,5.358,5.3707,5.3649,5.3665,5.3691,5.3727,5.373,5.3752,5.378,5.3784,5.3756,5.381,5.3821,5.3884,5.3918,5.3857,5.3862,5.4051,5.4055,5.4058,5.4093,0,0,0,0,0,0,5.356,5.3579,5.3609,5.365,5.3668,5.3765,5.3729,5.3734,5.3761,5.3758,5.3797,5.3802,5.3809,5.3877,5.3889,5.3924,5.3866,5.4048,5.4053,5.4057,5.4088,5.4097,5.4104,0,0,0,0,0,5.3554,5.3615,5.3611,5.3626,5.3707,5.3767,5.3777,5.3786,5.3764,5.3793,5.3811,5.38,5.3913,5.3884,5.3898,5.3934,5.4046,5.4051,5.4056,5.4085,5.4095,5.4104,0,0,0,0,0,0,5.3575,5.362,5.3616,5.3693,5.3726,5.3764,5.3802,5.3797,5.3836,5.3831,5.3839,5.3848,5.3912,5.3929,5.3896,5.4006,5.3976,5.3984,5.3993,5.4003,5.401,5.4004,5.387,0,0,0,0,0,5.3589,5.3637,5.3672,5.3736,5.3754,5.3775,5.3801,5.3806,5.384,5.3853,5.3876,5.3908,5.395,5.3977,5.4018,5.4091,5.4098,5.4123,5.4131,5.4137,5.4143,5.4181,5.4192,5.4076,5.4076,5.4076,0,0,5.3617,5.3648,5.3677,5.3741,5.3768,5.3814,5.3787,5.3838,5.3871,5.386,5.3922,5.394,5.3975,5.4044,5.4075,5.406,5.4177,5.4144,5.4148,5.4151,5.4187,5.4198,5.4208,5.408,5.4079,5.4079,0,0,5.3693,5.3722,5.3778,5.3805,5.3846,5.386,5.3873,5.3912,5.3924,5.3987,5.3979,5.4018,5.4091,5.4116,5.4139,5.4223,5.4213,5.4236,5.4275,5.4312,5.4321,5.4329,5.4357,5.4367,5.4242,5.4242,5.4243,0,5.3722,5.3795,5.3806,5.3858,5.3885,5.3879,5.3934,5.3959,5.4011,5.4028,5.4012,5.4103,5.4126,5.4199,5.422,5.4239,5.4252,5.4231,5.4319,5.4327,5.4335,5.4362,5.4372,5.4245,5.4244,5.4244,5.4244,0,5.3828,5.3878,5.3918,5.397,5.4001,5.4054,5.4071,5.4101,5.4102,5.4117,5.4179,5.4207,5.4253,5.4271,5.4272,5.4343,5.4333,5.4318,5.4287,5.4348,5.4373,5.4384,5.4248,5.4247,5.4247,5.4246,0,0,5.3919,5.3977,5.3991,5.4013,5.4058,5.4096,5.4147,5.4193,5.4218,5.4254,5.4295,5.4357,5.4343,5.4368,5.4372,5.4405,5.4467,5.4385,5.4386,5.4398,5.4545,5.4554,5.4566,5.4461,5.4463,5.4465,5.4541,0,5.3997,5.4091,5.4102,5.4184,5.4228,5.4223,5.4268,5.4298,5.4313,5.4351,5.4366,5.4409,5.4389,5.4404,5.4436,5.4453,5.4496,5.4447,5.4497,5.4499,5.4487,5.458,5.459,5.4661,5.4551,5.4553,5.4554,0,5.4101,5.4141,5.4228,5.4266,5.4285,5.4325,5.4367,5.4405,5.4438,5.4447,5.4475,5.4474,5.4524,5.4493,5.456,5.4527,5.4548,5.4559,5.4562,5.4565,5.4529,5.4584,5.4684,5.4693,5.457,5.4569,5.4567,0,5.4156,5.4232,5.4293,5.4313,5.4359,5.4387,5.4406,5.4438,5.4465,5.4501,5.4518,5.4559,5.4581,5.4612,5.4621,5.4597,5.4687,5.4657,5.4693,5.4693,5.4711,5.4709,5.4813,5.4728,5.4727,5.4727,5.4727,0,5.4241,5.4294,5.4318,5.4356,5.4414,5.4425,5.4482,5.45,5.4528,5.4567,5.4564,5.46,5.4611,5.4649,5.4656,5.4709,5.472,5.4726,5.4726,5.4725,5.4724,5.4737,5.4732,5.473,5.4729,5.4729,5.4728,0,5.4312,5.4331,5.4397,5.4435,5.4446,5.4487,5.4518,5.4553,5.4567,5.4616,5.4628,5.465,5.4693,5.4706,5.4758,5.4763,5.4825,5.4822,5.4814,5.4813,5.4848,5.4844,5.4963,5.4978,5.4884,5.4885,5.4886,0,5.4364,5.4405,5.4448,5.4475,5.4497,5.454,5.4568,5.458,5.4608,5.4649,5.4678,5.4721,5.4757,5.4826,5.4844,5.4883,5.488,5.492,5.4886,5.4883,5.4878,5.4875,5.4878,5.4925,5.4926,5.4927,5.4928,0,5.4454,5.4462,5.4503,5.4547,5.4581,5.4615,5.4648,5.467,5.4686,5.4718,5.4763,5.4791,5.4844,5.4886,5.4926,5.4943,5.4937,5.4938,5.4948,5.4946,5.4939,5.4941,5.4829,5.4935,5.4934,5.4934,5.4933,5.4933,5.4516,5.4552,5.4587,5.4633,5.4659,5.469,5.4725,5.4744,5.4783,5.4828,5.4833,5.4881,5.4911,5.4964,5.4984,5.502,5.5008,5.5023,5.5027,5.503,5.5032,5.4935,5.5027,5.5027,5.5027,5.5027,5.5027,0,5.4604,5.4627,5.4669,5.4717,5.4752,5.4746,5.4782,5.4811,5.4854,5.4885,5.492,5.4971,5.5011,5.5033,5.5073,5.5098,5.5096,5.5108,5.5105,5.5108,5.5041,5.5028,5.5108,5.5108,5.5108,5.5108,5.5108,5.5108,5.4654,5.4713,5.4725,5.4796,5.4818,5.4867,5.4888,5.4915,5.4939,5.4997,5.5032,5.5047,5.5073,5.5114,5.5151,5.5156,5.5169,5.5182,5.5186,5.5122,5.5113,5.5105,5.5093,5.5186,5.5186,5.525,5.525,5.5251]}]]